Live-Position
3D-Globus wird geladen...
Über Starlink 3776
Group: 3 satellites
Beschreibung wird geladen...
Nächste Überflüge
Passes for default location (London). Set your location on the main map for personalized predictions.
Höhenverlauf
Loading altitude history...
No altitude history available
Zweizeiliger Elementsatz
1 52288U 22041AD 26105.92504722 -.00000508 00000-0 -13829-4 0 9991
2 52288 53.2168 291.9660 0001341 91.0821 269.0325 15.08837153220120
Epoch: 15. Apr. 2026 •
Age: 9 hours
Aktueller Status
Höhe 558.7 km
Geschwindigkeit 7.58 km/s
Subsatellitenpunkt -52.09°S,
130.9°W
Startdatum 21. Apr. 2022
Alter 3.9 years
Typ internet
Startgruppe
Falcon 9 •
Group 4-14 •
46 satellites
Starlink 3761
52262
Starlink 3786 52263
Starlink 3795 52264
Starlink 3740 52265
Starlink 3739 52266
Starlink 3748 52267
Starlink 3746 52268
Starlink 3791 52269
Starlink 3804 52270
Starlink 3788 52271
Starlink 3781 52272
Starlink 3782 52273
Starlink 3790 52274
Starlink 3784 52275
Starlink 3778 52276
Starlink 3780 52278
Starlink 3764 52280
Starlink 3779 52281
Starlink 3783 52282
Starlink 3789 52283
...and 25 more
Technische Details
Klassifizierung Payload
Masse 297.00 kg
Trockenmasse 275.00 kg
Gesamtmasse 297.00 kg
Länge 0.20 m
Durchmesser 2.80 m
Spannweite 9.00 m
Form Box + pan
Hersteller SPXS
Bus-Typ Starlink
Phasenstatus In Orbit
Besitzer/Staat SPXS/US
Most Searched
Loading...